Theta_e
323 323 322 322 322 321 322 322 322 321 322 322 321 322 321 321 321 321 321 321 321 321 321 322 323 323 324 323 324 324 324 323 323 323 323 323 322 322 322 322 322 321 321 321 321 321 321 322 322 322 322 322 322 323 323 323 323 323 323 323 323 323 322 321 320 319 318 318 317 317 317 317 317 316 316 315 315 314 315 315 314 314 314 314 314
324 324 324 324 324 324 324 324 324 323 324 324 324 324 324 324 324 324 324 324 324 324 324 325 324 324 324 324 325 325 325 324 324 323 323 322 322 322 322 322 322 321 321 321 321 321 321 321 322 322 322 322 322 322 322 323 323 323 323 323 323 323 322 322 322 321 320 320 319 318 318 318 317 317 317 316 316 315 315 315 315 315 315 314 314
324 324 324 325 325 325 325 325 325 325 326 325 325 325 326 326 326 326 326 325 325 324 324 324 323 323 322 323 323 324 324 324 324 322 322 322 322 322 322 322 322 322 321 321 321 321 322 322 322 322 321 321 321 322 322 322 322 322 322 322 322 323 323 323 322 322 322 322 322 321 320 319 318 318 317 317 317 316 316 315 315 315 315 315 315
324 324 324 325 324 325 325 325 326 326 326 326 326 326 326 327 326 326 326 325 324 323 323 322 321 321 320 321 322 323 323 323 323 322 322 322 322 323 323 322 323 323 322 322 322 322 322 322 323 322 321 321 321 321 322 322 321 321 321 322 322 322 322 323 323 323 323 323 322 322 322 321 320 319 318 318 317 317 317 316 316 316 316 315 315
324 324 324 324 324 324 325 325 325 326 326 326 326 327 327 326 326 326 325 324 323 323 322 320 320 319 319 321 322 322 322 322 322 321 322 322 323 324 322 320 321 322 322 323 322 322 322 322 322 322 322 322 322 321 321 320 320 320 320 321 321 322 322 323 323 323 323 323 323 323 322 322 321 321 320 320 319 319 318 318 317 316 316 316 316
323 324 324 324 324 324 324 325 325 325 325 326 326 327 327 326 325 324 323 322 321 321 321 321 322 321 320 321 321 321 322 322 322 321 320 320 322 323 320 318 319 320 321 321 321 321 321 321 321 321 322 322 322 321 320 320 320 320 320 320 320 321 322 322 322 323 323 323 323 323 323 322 322 322 322 321 321 321 320 320 319 318 317 317 317
323 323 323 323 323 323 323 323 324 324 325 325 325 326 325 325 324 323 322 321 321 321 321 323 324 322 320 321 321 322 322 322 322 322 320 318 319 321 320 319 320 320 321 320 320 320 320 320 320 320 320 321 321 321 320 320 320 320 319 320 320 320 321 321 322 323 324 323 322 322 322 323 323 323 322 322 322 321 321 321 320 320 319 319 318
323 323 323 323 323 322 321 322 322 322 323 324 324 324 324 323 322 322 321 321 321 320 321 323 323 321 320 321 322 323 323 323 323 320 318 317 317 319 320 321 321 321 321 320 320 320 320 320 320 320 319 320 321 320 320 320 320 319 319 319 319 320 320 321 321 322 322 322 321 321 321 322 322 322 323 323 322 322 322 322 321 321 321 320 320
323 323 324 323 323 323 322 322 322 322 323 323 323 323 323 323 322 322 322 321 321 319 319 320 320 319 320 321 323 324 323 322 320 317 316 316 317 319 320 321 321 319 319 318 319 319 320 320 320 320 319 320 320 320 320 320 319 319 319 319 319 319 320 320 321 321 321 321 320 320 320 320 320 321 322 322 322 322 322 322 321 322 321 321 321
324 325 324 323 323 322 322 321 323 323 321 321 321 321 321 321 321 322 322 321 320 319 319 319 319 319 320 321 321 322 321 320 318 317 316 317 318 318 319 319 319 318 318 318 318 319 320 320 320 319 319 319 319 319 319 319 317 316 316 318 319 318 318 318 319 319 319 319 319 319 319 319 319 320 320 321 321 322 322 322 322 321 321 321 321
325 325 324 323 322 320 319 320 322 322 321 321 321 320 320 319 319 319 319 319 320 321 320 319 319 318 319 321 321 321 321 319 318 318 318 318 319 318 316 317 318 318 318 318 317 317 317 317 317 317 317 317 316 316 316 315 314 313 313 315 317 317 317 317 317 317 318 318 318 318 318 318 318 318 318 319 319 320 321 321 322 322 322 321 320
326 326 325 324 323 322 321 322 323 322 322 323 323 322 321 321 319 318 319 320 322 323 321 320 320 320 321 323 323 323 320 318 317 318 319 319 319 318 316 316 316 316 316 316 315 314 314 313 313 313 313 313 313 312 312 311 311 312 312 312 313 313 313 313 313 314 314 315 315 315 316 315 315 315 316 317 317 318 318 319 320 320 320 320 320
327 326 326 325 324 324 324 324 324 324 324 323 323 324 324 323 321 319 320 322 324 323 320 321 322 322 324 323 321 320 317 316 317 318 318 317 318 318 316 315 314 313 313 312 311 311 311 311 310 310 309 309 309 309 309 309 309 309 310 310 310 310 310 311 311 311 311 312 312 312 312 312 312 312 313 314 314 314 315 317 317 318 318 319 320
327 326 326 326 326 325 325 325 324 324 325 324 323 325 326 324 321 320 320 320 322 322 321 323 324 324 324 321 318 317 314 316 317 316 316 316 316 316 315 313 312 311 311 310 309 308 307 306 305 304 304 304 304 304 304 304 303 303 304 304 304 305 305 305 305 305 306 306 306 307 307 308 308 309 310 311 312 312 313 315 316 316 316 317 318
326 326 325 325 325 325 324 324 324 324 324 322 322 324 326 324 321 322 322 321 320 320 322 325 325 324 323 319 318 317 316 316 316 314 315 314 314 313 312 312 310 309 307 306 305 303 302 301 301 300 300 300 300 300 300 299 299 299 299 299 299 299 299 299 299 299 299 299 299 299 300 301 301 302 303 305 306 307 310 312 315 316 315 315 316
325 325 325 325 325 324 324 324 322 323 321 321 322 322 322 322 321 321 323 324 322 321 323 325 325 323 321 320 320 319 317 316 314 312 313 313 312 311 311 309 307 305 303 302 302 301 300 300 300 300 299 299 299 299 299 298 298 298 298 298 298 297 297 297 297 297 297 297 297 297 297 297 297 297 298 298 298 300 302 304 308 310 312 314 315
323 322 324 323 322 323 327 326 322 322 322 323 326 324 323 324 324 322 323 324 324 324 325 325 324 321 320 321 321 318 317 316 315 313 312 311 310 309 307 306 304 302 301 301 301 300 300 300 300 300 299 299 299 298 298 298 298 297 297 297 297 297 297 297 297 297 297 297 297 297 297 297 297 297 297 297 297 297 297 297 298 300 304 308 309
319 322 325 322 321 324 325 324 323 323 323 323 326 326 325 326 326 323 321 322 324 325 325 325 323 319 318 321 321 319 318 317 315 314 312 309 307 305 303 303 302 301 301 301 301 301 300 300 300 300 299 298 298 298 297 297 297 297 297 297 297 297 297 297 297 297 297 297 297 297 297 296 296 296 296 296 296 296 296 296 297 296 298 301 302
318 323 328 324 324 327 325 326 329 326 323 324 326 326 327 328 325 320 319 322 324 324 324 323 320 317 317 320 320 319 317 315 314 313 312 308 303 301 300 300 300 300 300 301 301 302 302 301 300 299 298 298 297 297 297 297 297 297 297 297 297 297 297 297 297 297 297 296 296 296 297 296 296 296 296 296 296 296 296 295 296 296 296 296 296
318 320 327 325 324 327 327 327 328 325 324 327 328 327 328 326 322 318 320 323 324 323 321 318 315 314 315 316 315 314 312 311 311 311 308 304 300 299 299 299 300 300 300 300 300 301 301 300 299 298 298 297 297 297 297 297 297 297 297 297 297 296 296 296 296 296 296 296 296 296 296 296 296 296 296 296 295 295 295 295 295 295 295 295 295
320 319 324 323 322 327 327 325 326 326 325 326 325 325 325 322 321 322 321 320 319 317 315 314 312 312 312 312 311 310 309 308 306 303 301 299 297 298 298 298 301 302 301 299 299 299 298 298 298 298 297 297 297 297 296 296 296 296 296 296 296 296 296 296 296 296 296 296 296 296 296 295 295 295 295 295 295 295 295 295 294 294 294 293 295
321 320 321 319 318 321 321 323 326 326 324 322 320 319 319 318 319 320 317 315 316 314 312 312 312 311 311 310 308 306 304 302 300 298 297 297 297 298 298 298 299 302 301 299 298 297 297 297 297 297 297 296 296 296 296 296 296 296 296 296 296 296 296 296 296 296 296 295 295 295 295 295 295 294 295 294 294 295 294 294 294 294 294 295 297
321 322 322 319 317 317 317 320 322 321 319 318 317 316 316 315 316 316 314 313 313 311 311 312 310 309 308 306 303 301 299 298 297 297 297 297 297 297 298 298 298 300 299 298 297 297 297 297 296 296 296 296 296 296 296 295 295 295 295 295 295 295 295 295 295 295 295 295 294 294 294 294 294 294 294 294 294 294 293 293 293 294 295 298 301
321 322 321 318 319 320 321 320 319 318 317 316 314 314 313 313 313 313 312 312 311 311 311 309 308 306 303 301 299 298 297 297 297 297 297 296 296 296 297 297 298 298 298 297 297 297 297 296 296 296 296 296 295 295 295 295 295 294 294 294 294 294 294 294 294 294 294 294 294 294 294 293 293 293 293 293 293 293 293 293 292 293 294 298 301
321 320 320 319 320 322 321 319 318 317 315 314 312 312 311 312 312 311 311 311 310 310 308 306 303 301 299 298 298 297 297 297 297 296 296 296 296 296 296 296 297 297 297 297 297 297 297 296 296 296 295 295 295 295 294 294 294 294 294 294 294 293 293 293 293 293 293 292 292 292 292 292 292 292 292 292 292 292 292 292 292 292 294 297 300
322 320 320 322 322 322 319 317 316 315 313 312 311 311 312 311 311 311 310 310 308 306 303 301 300 298 298 298 297 297 297 296 296 296 296 296 296 296 296 296 296 296 297 296 296 296 296 295 295 295 295 295 295 294 294 294 294 294 294 294 293 293 292 292 292 292 291 291 291 291 291 291 291 292 292 292 292 292 292 292 292 291 292 293 295
322 321 322 322 322 320 317 315 314 313 312 311 311 312 311 311 311 310 309 307 304 302 300 299 298 298 298 297 297 297 296 296 296 296 296 296 295 295 295 295 296 296 296 296 296 296 296 295 295 295 295 295 294 294 294 294 294 294 293 293 293 292 291 291 291 291 291 291 291 291 291 291 291 291 291 291 291 291 291 291 291 291 292 292 293
322 322 322 321 321 318 316 314 313 311 311 312 311 311 310 310 309 307 305 303 301 299 298 298 298 297 297 297 297 296 296 296 296 295 295 295 295 295 295 295 295 295 295 295 295 295 295 295 295 295 294 294 294 293 293 293 293 292 292 291 291 291 290 290 290 290 290 290 290 290 290 290 290 290 290 291 292 292 292 293 293 293 294 295 295
322 321 320 321 320 317 315 313 312 311 311 311 311 310 309 308 306 304 302 300 299 298 298 298 297 297 297 297 296 296 296 295 295 295 295 295 295 295 295 295 294 294 294 294 295 295 295 295 294 294 294 293 293 293 292 292 292 291 291 291 290 290 290 290 290 290 290 289 289 289 289 289 289 289 290 291 291 292 292 292 293 294 294 294 295
322 320 320 320 319 316 313 312 311 311 311 311 310 309 307 305 303 301 300 299 298 298 297 297 298 297 297 297 296 296 295 295 295 295 295 295 295 295 295 295 294 293 293 293 294 295 295 295 294 294 294 294 293 293 292 292 292 291 290 290 290 290 290 290 290 290 290 289 288 289 289 289 288 289 289 290 290 291 291 292 292 293 293 293 294
322 320 319 320 317 314 312 311 311 311 310 309 308 307 305 303 301 299 299 298 298 298 298 298 297 297 297 296 296 295 295 295 295 295 295 295 295 295 294 294 294 293 293 292 292 294 294 294 294 294 294 294 293 293 293 292 291 291 291 290 290 290 290 290 290 289 289 289 288 288 288 288 288 288 288 288 289 289 290 290 290 291 291 292 292
320 319 319 319 315 312 311 311 311 310 309 308 306 304 303 301 299 298 298 298 298 298 298 297 297 297 297 296 295 295 295 295 295 295 295 295 295 295 294 294 293 293 293 292 292 294 295 294 294 294 293 293 293 292 292 292 291 290 290 290 290 290 290 290 290 289 288 288 288 287 287 287 286 286 286 286 287 288 288 289 289 290 290 290 291
319 319 319 317 313 311 311 311 310 309 308 306 304 302 301 299 298 298 298 298 298 298 297 297 297 296 296 296 295 295 295 295 295 295 295 295 294 294 294 294 293 292 292 292 291 292 294 294 293 293 292 292 293 292 291 291 291 290 290 290 289 289 289 289 289 289 287 287 287 287 286 286 286 286 286 286 286 287 288 288 289 289 289 289 290
320 319 318 314 311 311 311 310 309 307 305 304 302 300 299 298 298 297 298 298 298 298 297 297 296 296 295 295 295 295 295 294 295 294 294 294 294 294 293 293 293 292 291 291 291 291 293 294 294 293 292 291 291 291 290 290 290 290 290 289 289 289 289 289 289 288 287 286 287 287 287 286 286 285 285 285 286 287 287 288 288 288 288 289 289
320 318 314 311 311 310 310 309 307 305 303 301 300 299 298 297 297 298 298 298 297 297 297 296 296 295 295 295 295 295 294 294 294 294 294 294 294 293 293 293 292 292 291 290 290 290 291 293 294 293 292 291 290 290 290 289 289 289 289 289 289 289 289 289 289 288 287 285 285 286 286 286 285 285 285 285 286 286 287 287 288 288 288 288 288
319 314 311 310 310 310 309 307 305 302 301 300 298 298 297 297 297 298 297 297 297 296 296 296 295 295 295 295 294 294 294 294 294 294 294 294 294 293 293 292 292 291 291 290 289 289 289 291 293 292 291 290 290 289 289 289 289 289 289 289 289 289 289 289 288 288 287 286 285 286 286 285 285 285 285 285 285 286 286 287 287 287 288 288 288
314 311 310 310 309 309 307 304 302 300 299 298 297 297 297 297 297 297 297 297 297 296 296 295 295 295 294 294 294 294 294 294 294 294 294 294 293 293 292 292 291 291 291 290 289 289 289 289 291 292 291 290 289 289 288 288 288 288 288 288 288 288 288 288 288 287 286 286 286 286 286 285 284 284 285 285 285 285 286 286 287 287 288 288 288
311 310 310 309 308 306 303 301 300 299 298 297 297 297 297 297 297 297 297 297 296 296 295 295 295 294 294 294 294 294 294 294 294 294 294 293 292 292 292 292 291 291 290 290 289 289 289 289 289 290 290 289 289 289 288 287 287 287 287 288 288 288 288 288 288 287 286 285 285 286 285 284 284 284 285 285 285 285 286 286 287 287 288 288 288
310 310 309 308 306 302 300 299 298 297 297 297 297 297 297 297 297 297 297 296 296 295 295 295 294 294 294 294 294 294 294 294 294 293 293 293 292 292 291 291 291 290 290 289 289 289 288 289 288 288 289 289 288 288 288 287 286 286 285 285 286 287 287 287 288 287 286 285 284 285 285 285 284 284 284 285 285 285 285 286 286 287 287 288 288
310 310 308 306 303 300 298 297 297 297 296 296 297 297 297 297 297 296 296 296 295 295 294 294 294 294 294 294 294 294 293 293 293 293 292 292 292 291 291 290 290 289 289 289 289 288 288 288 288 288 288 288 288 287 287 286 286 285 284 283 283 285 285 286 287 286 285 284 284 284 285 286 285 284 284 284 285 285 285 286 286 286 287 287 288
309 308 306 303 301 299 298 297 296 296 296 296 297 297 297 297 296 296 295 295 295 294 294 294 294 293 293 293 293 293 293 293 292 292 292 291 291 291 290 289 289 289 289 288 288 288 288 288 287 287 287 288 287 286 286 285 284 284 283 283 282 283 283 284 285 285 284 282 282 283 285 286 285 284 284 284 285 285 285 286 286 286 286 287 288
307 305 302 300 298 298 297 297 296 296 296 296 297 297 297 296 295 295 295 294 294 294 294 293 293 293 293 293 293 293 293 292 292 292 291 291 290 290 289 289 288 288 288 288 288 287 287 287 287 286 286 287 286 284 284 284 283 282 283 282 282 282 282 282 284 285 284 282 281 282 284 285 284 284 285 284 285 285 286 285 286 286 286 287 288
305 302 299 298 297 296 297 296 296 296 296 297 297 297 296 296 295 294 294 294 294 293 293 293 293 293 293 293 292 292 292 292 292 291 291 291 290 289 289 288 288 288 287 287 287 287 287 287 286 285 284 285 285 284 283 283 282 282 282 282 281 281 281 281 281 284 284 282 280 281 283 284 284 283 284 284 285 285 285 285 286 286 286 286 287
302 299 297 297 296 296 296 296 296 296 296 296 297 296 296 295 294 294 294 294 293 293 293 293 293 292 292 292 292 292 292 292 291 291 291 290 290 289 289 289 288 287 287 287 287 287 286 286 286 285 284 283 284 283 282 282 282 282 281 281 281 280 280 280 279 281 282 281 280 281 282 283 283 283 284 284 285 285 285 285 286 286 286 286 286
300 298 296 296 296 296 296 296 296 296 296 296 296 295 295 295 294 294 294 293 293 293 293 292 292 292 292 292 292 291 291 291 291 291 291 290 290 290 289 289 288 287 287 287 286 286 286 285 285 285 284 282 282 282 282 281 280 281 280 280 280 280 279 279 279 280 280 280 281 281 282 282 283 283 284 284 285 285 285 285 285 285 286 286 287
298 297 296 296 296 296 296 295 295 296 296 296 296 295 295 294 293 293 293 293 292 292 292 292 292 292 292 292 291 291 291 291 291 291 291 290 290 290 289 288 288 287 287 286 286 286 285 285 284 284 284 282 282 282 282 281 280 280 280 279 279 279 279 279 279 279 280 280 281 281 282 282 283 284 284 285 285 285 285 285 285 285 286 286 286
297 296 296 296 295 295 295 295 295 296 296 296 295 294 294 293 293 293 293 292 292 292 292 292 291 291 291 291 291 291 290 290 290 290 290 290 290 289 288 288 287 287 286 286 286 286 285 284 283 283 283 283 282 282 282 281 280 280 279 278 278 278 278 278 279 279 280 280 281 281 282 283 283 284 284 285 285 284 284 285 285 285 285 286 286
296 295 295 295 295 295 295 295 295 295 295 295 294 294 293 293 293 292 292 292 291 291 291 291 291 291 291 291 291 290 290 290 290 289 289 289 289 289 288 288 287 287 286 286 286 286 285 284 283 282 283 282 282 282 282 281 280 278 278 278 278 278 278 278 279 279 280 281 281 282 282 283 283 284 284 284 284 284 284 285 285 285 285 286 286
295 295 295 295 295 295 295 295 295 295 295 294 294 293 293 293 292 292 292 291 291 291 291 291 291 291 291 291 290 290 290 289 289 289 289 289 289 288 288 288 287 286 286 286 286 286 285 284 283 283 283 283 283 283 283 281 278 277 277 277 277 277 278 278 279 279 280 281 281 282 282 283 283 284 284 284 283 284 285 285 285 285 286 286 287
295 295 294 294 294 294 294 294 294 294 294 293 293 293 292 292 292 292 291 291 291 290 290 290 290 290 290 290 290 290 289 289 289 288 288 288 288 288 288 287 287 286 286 286 286 286 285 284 284 283 283 283 283 283 282 280 277 276 276 276 276 277 277 278 278 279 280 281 281 282 282 283 283 283 283 283 283 284 284 284 284 285 285 286 287
295 295 294 294 294 294 294 294 294 293 293 293 292 292 292 292 292 292 291 291 290 290 290 290 290 290 290 290 289 289 289 288 288 288 288 287 287 287 287 286 286 286 286 286 286 286 285 285 284 284 284 284 283 283 283 281 280 278 276 276 276 277 277 278 278 279 280 280 281 282 282 282 282 282 282 281 282 283 284 284 284 284 285 285 286
Wind_Speed
5 5 5 5 5 4 4 5 5 5 6 7 7 7 7 8 8 8 9 9 10 11 11 11 12 13 13 13 13 14 14 15 16 16 16 17 17 17 17 17 17 17 17 17 17 18 18 18 18 19 19 20 20 20 20 20 21 22 22 23 23 23 25 24 22 20 22 26 24 18 21 25 22 20 19 19 20 19 19 18 19 20 19 19 19
8 7 7 7 7 6 7 7 7 7 7 8 9 9 10 10 10 10 11 11 11 13 13 13 13 14 14 15 15 16 16 16 17 17 17 17 17 17 17 18 18 18 18 18 18 19 19 19 19 19 21 21 22 22 23 23 23 24 24 24 24 24 27 27 25 25 25 28 26 22 25 29 26 23 22 21 21 22 21 20 21 21 20 20 21
10 10 9 10 10 9 9 9 9 9 10 10 11 11 12 12 12 12 13 13 13 15 15 16 16 16 16 16 16 17 17 18 17 17 17 17 17 17 18 18 18 18 19 19 19 20 20 20 20 20 21 23 23 23 24 25 26 27 26 26 26 27 27 28 28 28 27 29 30 28 28 28 27 29 27 23 22 24 23 23 24 23 22 22 23
12 12 12 12 12 12 12 11 11 12 12 13 13 14 14 14 14 14 14 15 16 17 18 19 18 19 20 18 16 16 16 17 17 17 17 18 18 18 18 19 21 21 21 20 20 21 21 22 23 23 22 23 24 24 24 25 27 28 28 28 29 29 29 30 30 30 29 30 31 31 30 30 30 31 31 28 28 27 26 26 26 26 25 24 25
13 14 14 14 15 15 14 14 13 14 15 15 16 16 16 16 15 15 16 16 16 17 19 21 20 21 20 16 14 14 15 16 16 18 19 20 20 19 19 21 22 23 23 23 23 23 23 24 25 25 25 24 25 25 25 25 25 27 28 29 29 30 30 31 31 30 32 32 31 32 32 32 32 33 35 34 33 32 30 29 29 29 28 27 27
14 15 16 16 17 17 16 16 16 16 17 17 18 18 18 18 18 18 18 18 18 17 19 21 21 21 17 13 13 14 15 16 18 20 22 22 22 21 21 21 21 23 24 25 25 25 24 24 25 26 26 26 25 25 25 24 24 25 26 27 29 29 30 32 31 30 32 33 32 33 34 34 33 35 36 36 36 36 36 35 34 33 32 31 30
14 16 17 17 17 18 18 18 18 19 19 19 20 20 20 21 19 18 20 19 17 16 17 19 21 20 15 13 14 15 16 18 21 23 24 23 21 21 20 20 21 22 22 22 22 22 22 22 23 24 25 25 24 23 23 23 24 25 25 26 27 28 29 31 31 31 31 32 33 34 33 34 34 35 36 37 37 38 39 39 38 38 38 38 37
15 16 17 17 18 18 18 18 19 19 18 19 19 19 19 19 17 17 20 18 14 14 15 18 20 18 14 14 15 17 18 20 24 26 25 22 19 19 19 19 20 20 20 20 20 19 19 20 21 22 23 23 23 22 23 24 27 27 27 27 26 27 28 30 31 31 31 32 33 33 34 34 35 35 36 36 36 37 39 39 39 40 42 43 43
15 16 17 17 17 18 18 17 18 18 18 18 17 17 17 18 17 17 19 18 15 16 16 16 16 15 14 15 17 18 19 21 24 24 20 18 17 17 17 17 18 19 19 19 19 19 18 19 21 22 23 23 23 23 25 27 29 30 30 29 28 27 28 29 31 32 33 34 35 36 37 38 37 37 37 38 38 39 41 40 40 41 41 42 43
16 17 18 18 17 17 17 16 17 18 19 18 17 17 17 18 18 18 19 19 16 15 14 14 14 16 17 16 17 17 18 20 21 19 16 15 15 16 16 15 16 18 18 16 16 18 18 19 21 23 23 23 25 26 28 30 32 32 32 31 30 29 30 31 32 33 34 35 36 37 37 38 37 37 38 39 39 40 42 42 41 41 39 40 42
17 18 19 18 16 15 14 14 14 14 16 17 16 16 14 14 16 16 15 13 11 12 13 14 16 17 16 16 16 17 18 19 18 15 13 14 16 17 15 14 17 18 18 17 17 19 20 22 23 24 25 26 28 29 30 31 32 31 30 31 31 32 32 33 33 34 34 34 35 35 36 37 38 38 38 39 39 40 41 42 42 42 41 41 43
19 19 19 18 16 14 13 12 13 13 14 15 15 14 12 13 13 11 9 9 10 11 12 14 15 16 16 17 17 19 19 17 15 12 12 16 19 17 16 17 19 21 20 20 20 21 21 22 23 24 25 25 25 25 25 26 26 26 26 27 29 30 31 32 33 34 35 36 37 38 38 40 40 40 39 39 40 41 41 41 42 42 44 46 45
20 20 20 20 19 16 15 15 15 15 15 13 12 13 13 13 14 11 9 11 13 10 10 12 16 18 19 21 20 20 19 15 13 12 15 20 19 17 18 20 22 22 22 22 21 21 20 20 20 20 21 22 22 22 21 21 21 21 22 23 23 24 25 26 28 29 31 33 35 36 37 38 39 39 39 38 40 42 42 41 41 40 43 46 46
21 21 20 20 20 19 18 16 16 16 16 14 11 13 14 13 15 12 9 11 10 7 9 14 18 19 21 24 24 22 19 16 14 16 21 21 19 19 21 22 23 23 22 21 21 21 20 20 21 21 21 22 22 23 23 23 23 22 22 23 23 24 24 25 26 27 28 29 30 31 32 33 34 35 36 36 37 39 40 41 41 40 41 42 42
22 21 20 20 20 20 19 17 16 15 16 15 12 13 14 14 14 13 10 9 8 8 10 15 18 17 18 22 25 25 22 18 19 23 24 22 20 22 23 22 21 21 21 21 22 22 21 22 22 22 23 24 23 24 25 25 25 25 25 26 26 27 28 28 28 29 29 30 30 31 31 32 33 34 34 35 36 37 38 39 39 39 42 42 41
21 20 19 20 21 18 17 17 16 14 12 10 9 10 11 13 12 11 12 11 9 12 14 14 16 15 16 18 20 21 18 21 27 26 22 21 21 21 21 20 20 20 21 21 22 22 22 23 23 24 25 25 25 26 27 27 27 27 28 29 30 30 30 31 31 31 31 31 32 32 32 33 34 35 35 36 37 38 38 39 39 39 41 42 42
21 19 18 20 19 15 15 17 15 13 11 8 10 12 11 13 13 11 14 14 13 16 16 13 15 17 16 15 13 13 15 24 29 24 20 20 18 17 17 18 20 21 22 22 22 23 25 25 25 26 27 26 27 28 28 29 29 30 31 32 32 32 33 33 33 34 34 34 35 35 35 36 36 37 38 38 39 39 40 40 41 41 41 42 43
19 17 18 18 15 13 15 16 15 13 11 10 11 13 14 16 16 14 14 14 14 17 17 15 18 18 16 14 13 14 19 24 24 23 24 22 18 15 14 15 18 20 21 22 23 25 27 27 27 28 28 28 28 29 30 31 32 33 34 35 36 36 36 36 37 38 38 38 39 39 39 39 39 40 40 41 42 42 42 43 43 43 43 43 44
19 17 20 19 14 14 14 14 16 15 13 13 14 15 17 17 15 14 15 15 15 16 17 18 18 16 15 15 16 17 20 21 20 23 26 25 22 18 17 18 20 21 22 22 24 27 28 28 29 29 28 29 29 31 32 33 35 37 38 38 39 39 40 41 41 42 43 43 42 43 43 43 43 43 43 44 45 45 46 46 46 46 46 47 47
21 19 19 20 16 16 17 16 18 19 17 18 18 17 18 18 17 16 16 15 16 16 18 18 16 14 14 15 15 16 16 16 18 19 22 26 27 24 24 26 25 25 27 26 27 28 29 29 29 29 30 31 31 33 35 37 39 40 41 42 42 43 44 45 45 46 46 46 46 47 47 47 48 48 48 49 49 50 50 50 50 50 50 50 49
22 20 20 20 18 17 20 19 18 20 20 20 20 20 21 20 17 16 15 15 16 17 16 14 12 12 12 12 11 11 11 12 13 15 17 22 27 30 31 32 31 29 29 30 30 30 29 29 28 29 32 33 35 36 38 39 41 41 42 43 44 44 45 46 47 47 48 48 49 49 50 51 51 52 52 53 53 53 54 53 53 53 53 52 50
21 21 21 20 19 20 21 20 20 23 22 21 21 21 21 19 17 16 15 15 15 14 11 10 9 7 6 6 6 7 8 10 11 15 18 21 26 31 33 35 37 35 32 32 32 31 31 30 30 32 34 36 37 38 39 40 41 42 42 44 45 45 46 46 47 48 48 49 50 50 51 51 52 53 53 54 55 56 56 57 56 55 54 52 50
22 22 22 21 20 19 18 18 21 22 20 18 17 16 16 16 16 15 13 12 11 9 6 5 4 3 4 4 5 7 8 10 12 15 18 21 26 30 32 33 36 36 35 35 33 33 32 32 33 36 37 38 39 40 41 42 42 43 44 45 45 46 46 47 48 48 49 49 50 51 51 52 53 53 54 55 55 56 57 57 58 57 55 52 50
25 24 23 20 18 17 19 20 19 19 17 14 13 13 12 11 11 10 9 7 5 3 2 2 1 2 3 4 5 7 8 10 13 16 18 21 25 29 31 34 37 38 37 36 35 35 34 34 36 38 39 40 40 42 43 44 44 45 46 47 47 47 48 48 48 49 49 50 50 50 51 51 52 53 54 55 56 56 57 57 57 57 55 52 49
26 24 21 18 17 18 21 21 19 16 15 13 11 9 7 6 6 5 5 4 3 2 1 0 1 2 2 4 6 7 10 12 14 16 18 20 23 28 31 33 36 39 38 38 38 38 38 37 37 38 40 41 42 44 45 46 47 47 48 49 50 50 50 50 50 50 50 50 50 50 50 51 51 51 53 54 55 56 56 57 58 57 55 51 48
24 21 18 17 18 20 21 19 16 14 13 11 9 7 6 5 5 5 5 4 3 3 1 0 1 2 3 5 7 9 10 12 14 16 18 20 23 27 31 33 36 39 39 40 39 39 40 39 39 39 41 43 44 45 46 47 48 49 50 51 52 52 52 52 51 51 51 50 50 51 51 51 51 51 51 52 52 53 54 55 55 56 56 54 51
21 19 18 19 20 21 19 16 13 12 12 10 8 7 7 6 6 6 5 4 3 2 1 0 1 3 4 6 7 9 11 12 14 16 18 20 22 24 28 33 38 41 43 42 41 40 41 42 42 42 42 44 46 46 47 49 50 51 52 52 53 53 52 52 52 53 53 52 52 52 52 52 53 53 51 50 50 50 51 51 52 53 53 52 52
20 20 20 20 21 19 17 14 12 12 11 9 8 8 8 7 6 6 5 4 3 2 1 0 2 3 5 7 8 10 11 13 14 16 17 19 21 23 26 29 34 40 44 47 46 43 43 44 45 44 45 46 47 48 50 51 52 53 54 54 54 55 54 54 55 55 55 54 54 54 55 55 53 51 48 47 46 46 46 47 48 48 48 48 49
21 22 21 20 20 18 15 13 13 12 11 10 10 9 8 8 7 6 6 4 3 2 0 1 2 4 6 8 9 10 12 13 14 15 16 18 20 22 25 27 29 34 38 45 50 47 44 46 46 46 48 49 50 52 53 53 54 55 55 56 56 56 56 56 56 56 56 56 55 56 56 55 51 47 44 44 43 43 44 45 45 46 46 47 48
23 22 21 20 19 17 15 14 14 13 13 13 12 11 9 8 7 7 6 4 3 2 0 2 3 5 7 9 10 11 11 12 13 14 15 17 20 22 24 26 27 30 32 38 47 49 45 46 47 47 49 51 52 53 54 55 55 55 56 57 57 57 58 57 57 57 57 56 55 55 55 53 49 44 43 44 44 44 44 45 45 45 46 47 48
25 23 21 20 18 17 17 16 15 15 15 15 13 11 10 9 8 7 6 4 3 2 1 3 5 6 8 9 9 10 11 12 13 14 16 18 20 22 24 25 26 29 31 33 42 48 46 46 48 47 48 51 53 54 55 55 55 55 57 58 58 58 58 58 57 57 56 56 55 54 53 49 46 44 44 45 45 45 45 46 46 46 46 48 48
26 23 21 19 19 19 18 17 18 18 17 15 13 11 10 9 8 7 6 4 3 2 2 4 6 7 9 9 9 10 11 12 13 15 17 19 21 22 24 26 26 28 31 32 38 47 47 45 47 49 49 51 53 54 56 57 56 55 56 58 58 58 58 58 58 57 56 56 55 54 51 47 45 45 44 43 44 45 45 45 45 46 47 48 48
25 21 20 20 20 20 20 20 20 18 16 14 13 12 11 10 9 7 6 4 3 2 3 5 7 8 9 9 10 11 12 13 14 16 18 20 22 23 24 26 27 27 30 33 37 45 49 47 47 49 50 51 53 53 55 57 58 58 57 57 58 58 58 58 59 58 55 55 55 54 52 48 46 45 44 43 44 44 44 44 44 46 47 47 48
23 20 21 22 22 22 22 22 20 18 16 14 14 13 12 10 9 7 5 4 3 3 4 6 7 8 9 10 10 11 12 14 16 17 20 21 23 24 25 26 27 28 29 32 36 42 49 50 50 51 51 52 53 53 54 55 58 60 60 59 58 58 58 58 58 58 55 54 54 54 53 49 46 47 46 44 44 43 43 44 45 46 47 47 48
22 22 22 23 23 24 23 22 19 18 16 15 15 13 12 10 8 6 5 4 4 4 5 7 8 9 10 11 11 12 13 15 17 19 21 23 24 25 26 27 28 29 29 31 34 39 46 51 52 52 52 53 53 53 53 53 54 57 59 59 58 59 59 58 58 58 56 53 53 54 53 50 48 48 48 48 46 44 43 44 46 46 47 47 48
23 24 24 24 25 25 23 21 19 18 17 16 15 13 11 9 8 6 5 4 5 6 7 8 9 10 11 12 13 13 14 16 18 21 22 24 25 26 27 28 29 30 30 31 33 36 41 48 51 52 52 53 53 53 52 53 54 55 56 57 58 59 59 58 57 58 57 55 54 54 53 52 51 50 49 50 49 47 46 46 45 45 45 46 46
25 26 26 27 26 24 22 21 20 19 18 16 14 13 11 9 8 7 6 5 6 7 8 9 10 11 12 13 14 15 16 18 20 22 24 25 26 26 28 29 30 31 32 33 34 36 39 44 49 51 52 52 53 52 51 52 55 56 56 57 58 59 60 61 59 57 57 57 55 55 54 54 53 52 51 50 50 49 48 47 45 44 43 43 44
27 27 28 28 26 24 23 21 20 19 17 16 14 12 11 9 8 7 6 6 7 8 9 10 10 11 13 14 15 17 18 20 22 24 25 26 26 27 28 30 31 32 34 34 35 37 39 42 46 49 52 52 53 54 52 51 53 55 56 58 61 61 61 64 64 61 59 57 55 55 56 55 55 53 51 51 51 50 48 47 46 44 43 43 45
28 29 29 28 26 25 23 22 20 18 17 15 14 12 11 9 8 7 7 7 8 9 9 10 11 12 14 15 17 18 20 22 23 25 26 26 27 28 29 31 32 33 34 35 36 38 40 42 45 48 51 53 53 53 53 52 52 53 53 55 59 62 62 64 66 64 62 58 56 56 56 56 56 53 50 51 52 50 49 48 47 46 46 46 45
30 30 29 28 27 26 24 22 20 18 17 15 13 12 11 9 9 8 7 8 8 9 10 11 12 13 15 16 18 19 21 23 24 25 26 27 28 29 30 31 32 33 35 36 37 39 41 43 45 47 50 53 53 53 53 53 53 55 53 51 55 60 61 62 64 63 61 59 58 58 58 58 58 54 51 52 53 51 50 49 47 48 49 47 45
31 30 29 28 26 25 24 22 20 19 17 15 14 12 11 9 9 8 8 9 9 10 10 11 12 14 15 17 18 20 22 23 24 26 27 28 29 30 31 31 32 33 35 37 38 40 42 43 45 46 49 53 52 51 52 52 51 53 53 52 53 56 58 61 63 61 58 55 57 60 60 59 59 56 53 52 52 51 50 49 49 50 50 49 46
31 30 29 27 25 24 23 22 21 19 17 16 14 12 11 10 9 9 9 9 9 10 11 12 13 15 16 18 19 21 22 23 25 26 27 28 29 30 30 31 32 34 36 38 39 39 41 43 44 44 46 50 51 47 48 49 48 49 51 51 52 55 57 59 62 64 58 53 56 61 62 59 58 57 54 52 52 52 51 51 52 51 48 48 47
31 30 29 27 26 24 23 21 20 19 17 15 14 12 11 10 9 10 10 10 10 10 11 13 14 15 17 18 20 21 22 24 25 26 27 28 28 29 29 30 31 33 34 37 39 39 40 42 43 42 41 45 48 46 45 47 47 47 48 49 50 53 54 55 59 63 60 54 55 59 61 59 57 56 55 52 52 51 51 53 53 49 47 48 49
32 31 29 28 27 25 24 22 20 19 17 16 14 12 11 10 10 10 10 10 11 11 12 14 15 16 17 19 20 21 23 23 25 26 27 28 28 29 30 31 32 32 32 34 36 38 39 40 42 42 38 40 44 45 44 44 45 46 47 48 48 49 51 52 55 60 60 54 51 54 59 58 54 54 54 52 50 51 51 52 51 49 49 50 49
32 31 30 29 27 26 24 23 21 19 17 16 14 12 11 11 10 10 11 11 12 12 14 15 16 17 18 19 20 21 23 24 25 26 27 28 29 29 31 32 32 32 32 33 33 35 36 37 39 41 39 37 41 43 42 40 41 43 45 46 45 46 48 51 53 58 58 52 47 50 56 55 52 53 54 51 50 51 51 51 51 51 51 48 46
33 32 31 29 28 26 24 23 21 19 17 16 14 12 11 11 10 11 11 12 13 13 15 16 17 18 19 20 21 22 23 24 25 26 28 29 30 31 32 32 33 33 33 34 35 34 34 34 36 39 40 38 39 42 41 38 37 39 40 41 42 42 45 48 51 53 54 48 44 46 52 53 50 52 54 52 50 51 52 52 52 52 50 46 45
34 32 31 30 28 26 25 23 21 19 17 15 14 12 11 11 11 11 12 13 13 14 15 16 17 19 20 21 22 23 23 24 26 27 28 30 30 31 33 33 34 35 35 35 36 35 35 35 36 38 40 40 39 40 39 36 34 34 34 35 37 38 41 46 48 51 51 47 42 44 49 50 48 50 54 52 49 51 53 52 51 49 46 45 45
34 33 31 30 28 26 25 23 21 19 17 15 13 12 11 11 11 12 13 14 14 15 15 16 18 19 21 22 23 23 24 25 26 27 28 29 30 32 34 35 36 36 35 35 36 36 37 37 36 36 38 38 38 37 36 33 31 30 32 33 35 37 40 44 47 50 50 47 42 42 47 49 48 49 50 49 49 52 52 49 46 44 43 43 42
35 34 32 30 28 26 24 22 20 18 16 15 13 12 11 11 12 12 14 15 15 15 16 17 19 20 21 23 23 24 24 25 26 27 28 29 31 32 34 36 37 37 37 37 38 38 38 37 36 36 37 37 37 36 34 31 27 27 29 33 36 37 39 43 46 48 50 48 43 42 46 49 47 45 46 49 51 51 48 46 43 39 39 38 33
35 34 32 30 28 26 24 22 20 18 16 15 13 11 10 11 12 13 15 15 15 16 17 18 19 20 21 22 23 24 25 25 26 26 27 29 31 32 34 36 38 38 38 39 40 40 39 38 37 37 37 37 37 36 34 30 26 25 26 30 34 35 37 41 44 47 49 47 43 43 47 47 45 43 46 50 51 47 43 42 39 35 36 34 26
35 33 32 30 29 27 24 22 20 18 16 14 12 11 10 11 13 14 16 17 17 18 19 19 19 20 21 22 23 23 24 24 25 26 27 28 30 31 33 35 37 38 38 39 40 41 41 41 40 40 39 38 37 36 34 32 30 29 28 28 31 33 35 39 42 44 47 46 44 44 45 45 45 46 46 43 44 45 42 38 35 34 35 29 19
Wind_Direction
260 262 264 266 262 256 259 266 273 283 290 291 292 291 290 294 296 297 297 300 302 303 306 307 308 308 309 310 308 308 310 312 312 313 314 314 315 315 315 315 316 316 316 315 316 318 318 318 320 318 315 313 311 308 306 306 303 302 302 300 300 297 296 296 293 289 281 289 298 284 287 297 292 291 288 277 274 274 273 272 273 272 270 266 265
259 262 264 268 268 265 267 270 274 277 279 283 284 285 285 288 291 294 297 301 304 303 302 300 298 299 300 302 302 303 306 307 306 307 309 311 312 312 312 312 312 313 312 312 312 313 314 314 315 316 315 312 310 309 305 304 302 300 299 298 297 294 296 296 292 291 286 289 291 281 284 291 288 287 284 276 275 277 275 271 270 269 268 267 264
262 265 265 265 267 265 265 268 273 276 276 279 279 281 282 285 289 292 295 298 298 296 294 293 294 293 290 291 295 298 303 304 304 306 308 312 313 313 315 314 314 313 311 311 311 312 312 312 313 314 314 310 307 306 305 303 302 300 298 297 296 294 294 294 291 290 286 288 289 282 280 281 281 284 282 274 273 276 272 270 270 267 267 265 262
262 265 266 265 265 264 264 265 267 271 273 274 275 278 280 281 285 288 290 291 293 295 293 292 295 297 298 300 302 302 304 302 303 305 306 309 310 312 316 317 317 315 313 312 311 310 309 311 311 310 310 308 305 302 301 302 301 298 296 295 293 292 293 292 293 292 287 289 290 286 283 277 277 282 281 277 277 277 271 270 270 267 267 264 261
260 263 264 263 263 262 263 263 263 267 270 272 273 275 276 276 278 281 283 286 292 296 298 302 310 316 316 317 317 315 313 313 312 309 306 304 303 307 312 313 313 311 309 308 306 305 305 306 305 305 306 304 303 300 299 302 302 297 293 292 291 291 293 291 292 294 291 292 292 292 291 285 282 281 278 277 280 279 273 271 271 268 267 263 261
260 262 264 263 263 262 263 263 263 264 266 269 271 271 273 274 275 277 278 282 290 297 305 314 323 328 329 325 325 326 324 324 323 318 312 305 299 302 306 309 309 307 304 302 301 301 300 300 300 301 302 301 301 300 302 306 305 300 294 289 287 289 290 290 291 292 292 293 293 293 293 291 290 287 282 279 280 279 276 274 274 273 271 268 267
261 262 263 263 263 264 265 265 264 264 264 265 267 270 273 276 280 285 287 291 298 307 315 318 318 322 327 327 329 327 324 323 322 321 316 310 304 303 307 310 310 309 308 308 305 302 300 300 301 302 301 301 301 301 305 311 309 305 299 294 290 288 288 289 290 289 289 291 291 292 291 291 291 289 287 285 284 283 280 276 274 275 275 274 274
264 265 266 267 268 269 271 271 271 269 269 270 273 279 284 288 293 295 297 301 303 305 310 311 310 314 319 323 324 321 319 319 318 317 315 312 311 310 311 312 312 314 314 313 310 305 302 303 306 308 307 304 303 303 304 307 307 305 302 301 298 294 290 288 288 287 286 287 288 288 289 289 289 288 288 288 288 287 284 281 279 279 277 275 275
267 270 271 272 273 276 277 278 280 279 277 277 278 282 284 289 295 296 297 298 296 298 305 308 308 308 310 313 316 315 315 317 320 321 319 319 320 318 316 315 317 322 320 314 309 306 306 307 310 313 312 308 303 300 300 301 302 301 300 300 300 296 292 290 288 287 287 287 286 287 287 288 287 287 287 288 288 286 285 284 284 284 280 277 277
268 271 273 273 273 277 278 278 282 285 286 285 286 286 281 283 287 285 288 293 297 310 317 312 307 306 310 314 314 314 316 323 329 331 331 331 331 326 321 318 322 328 329 323 316 311 309 308 307 308 307 304 301 299 299 301 301 299 297 296 297 296 293 292 290 289 290 289 289 290 289 289 287 287 286 285 286 285 285 285 285 284 281 280 281
269 274 277 276 277 282 282 279 280 287 292 295 304 307 299 300 300 291 292 300 313 335 331 313 310 316 321 322 316 316 322 326 330 335 338 336 336 335 329 323 323 326 327 323 318 314 311 309 308 306 304 303 303 303 303 303 303 302 298 297 297 297 295 294 292 291 292 292 292 292 291 290 290 288 286 284 282 281 281 283 284 284 283 280 280
269 275 279 280 283 288 289 289 289 290 291 293 307 316 318 328 324 310 310 312 315 332 332 318 318 327 328 320 312 315 321 323 325 333 336 334 336 337 331 327 327 327 327 328 326 323 322 321 319 316 316 316 316 316 315 313 313 310 308 306 305 304 302 299 296 294 294 294 294 294 294 293 293 292 290 287 284 281 279 279 280 282 283 282 280
266 272 277 281 286 288 288 290 291 293 294 295 305 308 309 323 325 319 321 312 306 316 326 320 318 323 323 315 312 316 321 323 324 330 331 332 333 330 328 330 332 334 337 341 341 341 344 343 341 339 338 338 339 340 340 338 335 332 329 327 326 324 321 317 313 309 307 306 305 305 304 303 302 300 299 296 293 291 289 286 284 282 281 281 281
262 264 268 273 279 283 283 283 283 284 289 292 292 286 288 303 311 313 324 320 312 315 320 312 309 315 317 314 316 321 328 330 327 329 332 332 332 332 335 337 339 342 348 352 352 355 359 357 356 355 354 352 352 352 353 352 351 350 349 347 346 344 341 337 333 330 326 324 322 321 319 316 314 311 309 305 302 300 297 295 293 289 285 282 281
257 257 259 264 266 269 271 271 274 274 276 279 274 272 280 290 293 293 301 312 316 310 308 308 307 312 316 316 318 322 330 332 327 331 334 334 337 340 342 344 346 351 356 357 355 358 360 358 357 357 355 355 355 355 353 353 353 352 351 350 348 346 343 340 338 335 332 330 328 326 324 321 318 316 314 311 308 306 303 300 298 296 294 290 286
254 251 252 256 256 258 266 270 268 265 265 272 280 282 278 275 276 279 280 283 296 299 297 302 306 311 317 317 316 319 325 324 323 330 335 336 341 345 345 347 351 354 357 357 354 355 355 355 355 354 354 354 354 353 352 352 352 351 351 349 346 344 341 339 337 334 332 329 327 324 321 318 315 313 311 310 308 307 305 303 300 298 297 294 292
250 247 249 251 250 253 264 268 267 267 271 274 282 286 277 266 270 280 280 277 284 289 288 291 297 301 306 309 311 316 317 316 319 323 326 332 342 349 349 348 349 351 354 353 351 351 351 352 353 351 352 353 353 352 352 353 352 351 350 348 345 343 340 337 335 333 331 329 326 323 320 317 314 312 310 308 306 304 303 301 300 299 297 294 294
248 249 258 259 256 261 261 262 267 273 278 270 263 270 270 267 270 271 275 279 279 280 283 289 295 296 292 293 300 305 308 312 315 314 317 329 344 350 349 347 348 349 351 350 348 349 348 348 349 351 353 354 354 353 353 352 351 350 348 345 342 340 337 335 333 331 329 327 325 322 320 318 316 314 311 309 307 305 303 301 299 298 296 295 294
247 241 252 259 257 261 263 264 265 265 269 266 259 263 264 267 270 262 263 276 276 277 283 287 290 289 283 285 290 294 301 308 312 313 314 323 337 346 346 347 350 350 349 350 348 346 345 346 348 350 353 355 354 352 351 350 349 347 345 342 339 337 335 332 330 329 327 324 322 320 318 316 314 312 311 309 308 306 304 303 300 298 296 294 294
249 236 239 250 247 249 255 256 255 256 260 260 256 257 258 265 272 263 258 269 275 277 282 285 287 285 284 287 291 297 303 307 311 313 313 317 330 342 344 344 347 349 348 348 348 346 344 346 349 350 352 353 353 351 350 348 347 345 342 339 337 335 333 331 328 326 324 322 320 318 316 315 313 312 310 309 307 305 304 303 302 300 299 297 295
250 243 239 242 240 242 248 249 249 249 251 253 252 253 255 261 264 256 255 265 275 280 282 288 294 290 288 293 301 310 316 317 317 320 323 324 331 339 342 340 341 345 347 345 346 346 345 347 351 351 351 352 352 350 348 346 344 342 339 336 334 332 329 327 325 323 321 319 318 316 314 313 312 311 310 308 307 305 304 303 302 301 300 299 297
249 249 246 246 244 242 239 237 241 244 247 252 254 254 254 253 251 252 263 271 278 283 284 290 297 298 305 316 324 329 330 331 329 331 336 335 332 335 340 338 336 339 342 342 343 344 344 348 353 353 351 351 350 348 346 344 342 339 336 333 330 328 326 324 322 320 319 317 315 314 312 311 310 309 308 306 305 304 303 302 302 301 300 298 297
249 249 249 252 254 251 243 239 244 249 253 256 256 256 253 251 252 260 271 274 272 277 282 288 297 319 345 348 342 340 339 337 337 338 340 337 333 333 337 335 332 335 337 338 339 340 343 348 353 354 351 350 348 346 343 341 340 337 333 330 328 326 324 322 321 319 317 316 314 313 312 311 310 309 307 306 305 304 303 303 302 301 300 299 297
249 249 249 251 252 253 256 257 256 254 257 259 257 257 256 253 253 256 259 258 252 258 273 286 325 359 356 352 343 338 341 342 343 342 341 338 334 333 335 334 331 331 333 334 335 338 341 347 352 352 349 347 345 343 341 339 338 335 331 328 327 326 324 323 321 319 317 316 314 313 311 310 309 308 306 305 304 304 303 302 302 301 300 299 298
251 252 251 254 255 255 259 258 254 251 252 253 247 244 241 231 226 221 217 212 199 200 218 259 10 7 348 341 341 342 345 345 344 341 339 338 336 334 334 333 330 329 331 333 335 337 340 344 349 349 347 345 343 341 339 337 335 333 330 329 328 327 327 325 324 322 320 318 317 315 312 311 309 307 305 304 303 303 302 301 301 300 300 300 300
252 253 252 257 260 260 260 253 245 244 242 236 227 218 210 201 193 191 192 188 184 189 188 153 346 343 345 345 347 348 345 343 341 339 339 338 338 336 333 331 329 328 330 332 333 336 338 340 345 347 345 343 341 339 337 335 334 333 331 329 329 329 328 327 325 323 322 320 319 317 315 313 312 310 308 306 304 302 301 300 299 298 297 297 297
250 249 250 256 259 258 254 245 236 232 227 218 207 197 193 190 188 188 186 184 184 184 186 242 345 350 353 351 348 344 342 341 340 339 339 338 338 338 335 334 332 330 330 330 330 334 336 337 341 343 343 340 338 336 334 334 334 333 331 330 330 330 329 327 326 325 324 323 321 320 319 318 317 315 313 310 308 305 303 300 298 297 297 297 297
244 243 246 253 256 253 245 235 227 221 216 207 197 192 190 189 189 187 185 187 191 191 195 5 7 357 350 346 345 343 340 340 339 337 338 338 337 337 337 337 335 332 330 329 328 331 335 336 338 340 339 337 336 335 334 335 335 334 333 333 332 331 330 329 329 328 327 327 326 325 324 323 321 319 316 313 311 308 306 304 302 301 301 301 300
243 244 247 251 252 246 236 227 220 213 207 200 194 191 190 190 189 190 195 195 194 196 198 2 351 344 343 343 342 340 336 335 334 334 334 335 335 335 335 335 334 331 329 326 324 327 333 334 334 337 336 335 335 335 335 336 337 336 334 333 333 332 331 330 330 329 329 328 328 327 326 325 323 320 316 314 312 310 308 307 305 304 303 302 301
243 245 247 249 245 238 229 220 213 205 199 195 193 192 191 193 195 196 198 194 194 205 241 339 335 337 339 341 337 332 329 328 328 329 331 332 332 332 331 330 329 327 326 323 320 322 329 331 331 334 334 334 335 335 335 336 336 335 334 332 332 331 330 330 330 329 328 328 328 327 326 325 323 320 317 316 314 311 310 308 306 305 304 302 301
241 243 245 244 237 228 221 213 205 198 194 192 192 193 193 197 200 198 197 195 197 210 284 322 328 332 333 334 329 322 321 321 324 326 327 329 328 327 326 325 325 324 323 322 317 318 324 328 328 331 333 332 333 334 334 334 335 334 333 332 332 331 330 329 329 329 329 329 329 329 327 326 324 322 321 319 315 312 311 309 308 306 304 303 301
240 242 241 237 228 220 214 206 198 194 195 194 194 196 199 202 201 198 198 195 201 241 305 319 324 327 326 323 317 314 316 318 320 323 323 324 324 323 322 322 323 324 322 321 317 316 321 326 327 330 332 331 332 333 333 333 334 334 332 332 331 331 330 329 329 330 331 332 332 332 330 327 326 326 325 322 318 315 314 313 311 309 307 305 302
241 241 234 225 218 212 206 199 196 195 196 196 197 200 202 202 199 197 200 204 227 276 307 317 319 318 315 312 310 311 314 315 316 319 320 321 320 320 320 321 322 323 322 321 319 318 320 324 327 329 331 331 332 333 333 333 333 333 332 333 332 331 330 330 330 331 334 335 333 332 331 329 329 330 328 325 322 319 317 316 314 312 309 307 305
240 235 225 216 209 204 199 197 196 195 196 198 200 201 200 200 198 198 205 224 259 292 308 312 310 308 306 306 308 310 311 312 314 316 318 318 318 319 319 320 322 323 323 323 322 321 321 324 327 329 330 331 332 333 334 334 334 333 332 333 332 330 330 330 330 331 334 335 334 331 330 329 331 333 331 328 323 319 319 318 316 314 312 310 307
234 223 214 208 202 198 197 197 197 196 197 199 200 199 198 198 198 204 219 242 273 293 299 302 301 300 303 304 305 306 308 310 313 314 316 317 317 318 319 320 322 323 325 326 325 324 323 324 327 329 330 331 332 333 334 334 334 333 332 331 331 329 329 330 330 330 332 334 333 331 329 330 333 334 333 330 326 321 320 318 316 315 313 312 309
223 211 204 201 199 198 198 198 197 197 199 200 199 199 198 198 203 214 231 253 274 287 293 297 299 299 301 301 301 304 307 309 312 314 315 315 316 318 319 321 323 324 327 328 327 327 325 324 326 328 329 330 331 333 334 334 333 332 331 330 330 329 328 329 328 329 330 332 332 331 330 331 332 333 332 329 328 326 323 321 320 319 317 315 314
210 203 199 197 198 199 198 197 197 199 200 200 199 198 198 202 211 223 240 260 275 287 295 297 298 298 299 300 302 305 307 309 311 312 313 314 316 318 320 322 324 325 327 329 329 327 326 325 325 327 328 329 330 333 335 334 332 332 332 330 329 329 329 328 327 328 328 329 330 331 331 331 329 330 330 327 326 327 327 326 327 327 325 323 323
202 200 197 196 198 198 196 197 200 201 200 199 199 199 203 210 219 233 249 266 280 290 294 295 296 298 299 301 303 305 308 309 309 311 313 315 318 320 322 323 325 327 328 329 329 328 327 326 325 326 328 330 331 334 336 335 332 332 331 330 329 330 330 328 327 327 327 327 329 329 329 328 326 327 328 326 326 328 329 328 330 331 330 329 329
199 199 198 198 197 196 196 198 199 201 201 200 201 203 209 218 228 243 257 272 284 289 291 294 296 298 300 301 303 305 307 308 310 312 315 317 320 323 324 326 328 329 330 330 330 330 328 327 327 328 330 331 332 333 335 334 332 332 333 330 328 330 330 328 326 326 326 327 327 327 327 325 323 326 328 326 326 329 330 330 331 332 331 329 329
198 200 200 199 196 195 197 199 200 201 202 202 204 209 216 225 236 249 264 275 282 286 289 293 295 297 300 301 303 306 307 310 313 315 318 320 323 326 327 329 330 330 330 331 331 332 330 329 330 330 331 331 332 333 334 334 334 333 333 329 325 326 327 325 324 325 326 327 327 325 325 324 323 326 329 326 326 329 330 330 331 331 330 329 328
198 200 201 200 198 197 198 200 202 203 204 205 208 215 222 233 242 254 266 271 277 284 288 293 296 297 299 301 304 307 309 313 316 318 321 323 325 328 330 331 331 331 333 334 334 334 332 331 331 331 331 331 332 332 333 334 333 331 330 329 325 324 324 322 323 325 326 325 325 323 322 322 323 325 327 326 326 329 330 330 330 330 329 328 326
198 200 200 199 200 202 203 204 205 205 206 209 213 220 228 237 246 255 263 268 276 285 289 294 296 297 300 302 305 308 310 314 317 320 323 324 327 330 331 331 333 334 336 336 335 334 333 332 332 330 329 329 331 331 330 332 332 329 329 327 324 323 324 322 322 325 326 325 325 324 322 322 324 325 325 326 327 328 329 329 329 329 327 325 324
199 200 201 200 201 203 206 207 208 208 210 214 218 225 232 239 249 255 263 272 280 286 291 293 294 296 300 302 305 309 312 315 318 320 322 324 327 329 330 332 336 338 339 336 335 335 333 331 330 328 327 328 330 331 331 332 331 328 326 325 323 323 323 320 318 320 323 326 328 326 322 322 325 324 323 325 327 329 329 328 327 327 325 324 323
201 201 201 203 204 205 207 208 209 210 213 218 221 227 234 241 251 259 268 278 284 289 292 292 295 298 300 304 307 310 313 316 318 320 322 324 327 327 329 334 338 340 340 337 335 334 332 330 329 329 329 328 330 332 332 330 328 326 325 324 322 320 318 317 315 314 319 326 329 325 320 322 326 324 323 326 329 328 327 327 326 324 323 324 322
203 202 203 205 206 208 209 209 211 212 216 222 225 230 237 245 255 264 274 282 286 290 293 293 297 300 303 307 310 312 315 317 318 320 321 323 325 326 330 335 338 339 340 337 335 333 331 329 328 330 334 333 330 331 331 328 324 322 321 319 318 318 317 317 314 313 318 326 328 322 318 321 327 325 323 327 329 327 327 327 326 324 325 324 321
204 204 206 207 208 210 211 211 213 216 220 225 228 234 242 250 260 269 277 284 287 291 294 296 300 303 306 309 311 314 316 317 319 321 321 322 325 328 333 336 338 340 340 339 336 333 332 331 331 334 338 336 331 330 331 327 320 317 316 315 317 318 316 314 314 315 319 324 326 321 316 320 327 325 322 326 328 326 326 327 327 327 327 325 323
207 207 208 210 210 211 212 213 216 219 223 228 232 239 246 254 264 273 280 286 290 294 297 300 304 307 309 310 312 314 316 318 321 322 322 324 327 331 335 337 338 341 342 339 336 334 335 337 338 337 337 336 333 331 330 325 319 318 318 316 317 318 318 317 318 319 320 324 329 323 316 319 327 323 320 324 326 325 326 328 329 329 327 328 330
207 208 210 211 212 213 213 215 218 222 226 231 235 242 249 259 269 277 285 290 294 297 301 305 308 308 309 311 312 315 317 320 322 322 324 327 331 334 335 336 339 341 340 337 336 337 339 340 339 336 335 335 333 330 328 328 328 326 322 319 322 326 325 323 321 321 323 328 335 330 320 320 325 323 320 323 324 324 327 330 331 329 330 336 340
208 209 211 211 212 214 216 218 221 224 228 233 238 245 253 265 275 284 290 294 297 301 304 307 308 308 309 310 312 316 318 320 322 324 327 330 332 335 335 336 339 340 338 337 339 341 341 339 337 335 335 334 332 330 332 336 335 330 325 327 333 334 330 325 322 324 326 329 335 335 325 322 326 326 322 321 322 325 329 331 331 332 336 345 357
210 211 212 213 213 214 216 219 223 225 229 235 241 248 259 272 282 290 294 297 301 305 307 307 307 307 308 310 313 315 318 320 323 326 329 332 334 336 336 337 339 338 337 339 341 341 339 336 335 336 335 335 334 337 341 343 342 338 336 336 338 336 331 326 324 324 325 327 333 335 328 325 327 326 324 323 323 326 330 331 332 338 344 352 19
213 213 214 214 215 215 216 219 222 226 231 236 242 252 265 279 288 294 299 303 306 306 305 305 305 306 308 310 312 315 317 321 324 328 332 334 336 338 338 338 337 336 338 340 341 338 336 335 336 336 337 338 341 344 345 345 346 348 347 343 341 339 333 328 327 325 322 325 333 335 329 326 325 324 326 327 326 325 329 332 335 343 348 353 33